Location: Squirrel Cove
(50.1074°N, 124.9139°W)
Time: 13:49:17
(UTC-07:00)

PCSat - Pass Details

Date: 28 May 2022
Orbit: 784 x 795 km, 67.1° (Epoch: 26 June)

Event Time Altitude Azimuth Distance (km) Brightness Sun altitude
Rises 02:47:44 0° 320° (NW) 3,306 13.2 -15.6°
Reaches altitude 10° 02:50:13 10° 316° (NW) 2,373 12.3 -15.5°
Maximum altitude 02:55:26 49° 243° (WSW) 1,022 9.8 -15.2°
Enters shadow 02:59:09 19° 175° (S) 1,833 10.9 -14.9°
